Weather History for Stanley, ID

Change the Weather History Date:

Sunday, February 2, 2014

  Actual Average Record
Temperature  
Mean Temperature 2 °F 16 °F  
Max Temperature 20 °F 29 °F 46 °F (1987)
Min Temperature -16 °F 2 °F -38 °F (1996)
Degree Days  
Heating Degree Days 63 50  
Month to date heating degree days 115 100  
Since 1 July heating degree days 6055 6329  
Cooling Degree Days 0 0  
Month to date cooling degree days 0 0  
Year to date cooling degree days 0 0  
Moisture  
Dew Point -2 °F    
Average Humidity 74    
Maximum Humidity 91    
Minimum Humidity 56    
Precipitation  
Precipitation 0.00 in 0.07 in 0.54 in (1995)
Month to date precipitation 0.00 0.14  
Year to date precipitation 1.96 1.66  
Sea Level Pressure  
Sea Level Pressure 30.07 in    
Wind  
Wind Speed 3 mph (SSE)    
Max Wind Speed 10 mph    
Max Gust Speed 15 mph    
T = Trace of Precipitation, MM = Missing Value Source: NWS Daily Summary

Daily Weather History Graph

Daily Weather History Graph

Search for Another Location

Airport:

Trip Planner

Search our weather history database for the weather conditions in past years. The results will help you decide how hot, cold, wet, or windy it might be!

Date:

Astronomy

Feb. 02, 2014 Rise Set
Actual Time 7:56 AM MST 5:51 PM MST
Civil Twilight 7:25 AM MST 6:21 PM MST
Nautical Twilight 6:50 AM MST 6:56 PM MST
Astronomical Twilight 6:17 AM MST 7:30 PM MST
Moon 9:16 AM MST (2/2) 9:50 PM MST (2/2)
Length of Visible Light 10h 56m
Length of Day
9h 55m
Waxing Crescent, 12% of the Moon is Illuminated
Feb 2
Waxing Crescent
Feb 6
First Quarter
Feb 14
Full
Feb 22
Last Quarter
Mar 1
New

Hourly Weather History & Observations

Time (MST) Temp. Windchill Dew Point Humidity Pressure Visibility Wind Dir Wind Speed Gust Speed Precip Events Conditions
12:51 AM -0.9 °F -12.7 °F -5.1 °F 83% 30.11 in - South 5.8 mph - N/A   Unknown
1:51 AM -4.0 °F - -8.0 °F 83% 30.10 in - Calm Calm - N/A   Unknown
2:51 AM -6.0 °F -20.1 °F -9.0 °F 87% 30.13 in - South 6.9 mph - N/A   Unknown
3:51 AM -9.9 °F -19.2 °F -13.0 °F 86% 30.14 in - SSE 3.5 mph - N/A   Unknown
4:51 AM -9.9 °F -21.5 °F -14.1 °F 82% 30.14 in - SSE 4.6 mph - N/A   Unknown
5:51 AM -14.1 °F -28.3 °F -18.0 °F 82% 30.17 in - SSE 5.8 mph - N/A   Unknown
6:51 AM -14.1 °F -23.9 °F -18.0 °F 82% 30.18 in - SE 3.5 mph - N/A   Unknown
7:51 AM -15.0 °F -25.0 °F -18.9 °F 82% 30.22 in - Variable 3.5 mph - N/A   Unknown
8:51 AM -13.0 °F - -17.0 °F 82% 30.22 in - Calm Calm - N/A   Unknown
9:51 AM -5.1 °F -13.6 °F -9.0 °F 83% 30.19 in - East 3.5 mph - N/A   Unknown
10:51 AM 1.9 °F - -2.9 °F 80% 30.15 in - Calm Calm - N/A   Unknown
11:51 AM 7.0 °F - -0.0 °F 73% 30.11 in - Calm Calm - N/A   Unknown
12:51 PM 12.0 °F - 1.9 °F 64% 30.04 in - Calm Calm - N/A   Unknown
1:51 PM 12.9 °F - 3.9 °F 67% 30.03 in - Calm Calm - N/A   Unknown
2:51 PM 17.1 °F - 5.0 °F 59% 29.99 in - Calm Calm - N/A   Unknown
3:51 PM 18.0 °F 12.7 °F 6.1 °F 60% 30.00 in - NNW 3.5 mph - N/A   Unknown
4:51 PM 19.0 °F - 7.0 °F 59% 29.98 in - Calm Calm - N/A   Unknown
5:51 PM 18.0 °F - 9.0 °F 68% 30.01 in - Calm Calm - N/A   Unknown
6:51 PM 16.0 °F 10.4 °F 10.0 °F 77% 30.02 in - South 3.5 mph - N/A   Unknown
7:51 PM 15.1 °F 9.4 °F 9.0 °F 77% 30.01 in - South 3.5 mph - N/A   Unknown
8:51 PM 14.0 °F - 10.0 °F 84% 30.00 in - Calm Calm - N/A   Unknown
9:51 PM 16.0 °F 5.3 °F 9.0 °F 74% 29.94 in - ESE 8.1 mph - N/A   Unknown
10:51 PM 17.1 °F 6.6 °F 10.0 °F 74% 29.89 in - ESE 8.1 mph - N/A   Unknown
11:51 PM 18.0 °F 8.7 °F 10.0 °F 71% 29.86 in - SSE 6.9 mph - N/A   Unknown